CTN850 LDZA-BKPR

Flight info

Callsign CTN850
Flight time N/A
Altitude 39000
Route MOSAV DCT LURID DCT PODOB DCT MEDUX DCT ARBER ARBER1D
Aircraft A319/M-SDE3FGHIRWY/LB1

Departure

Time N/A
Airport Zagreb Franjo Tuđman International Airport (LDZA)

Arrival

Time 2026-04-20 16:55
Airport Priština Adem Jashari International Airport (BKPR)
Time Latitude Longitude Altitude Speed Heading
2026-04-20 16:34 42.62293 20.11869 35666 ft 455 kts 153°
2026-04-20 16:34 42.59542 20.13999 35031 ft 456 kts 153°
2026-04-20 16:35 42.56789 20.16134 34494 ft 455 kts 153°
2026-04-20 16:35 42.54034 20.18269 33908 ft 456 kts 152°
2026-04-20 16:35 42.51279 20.20404 33270 ft 456 kts 152°
2026-04-20 16:35 42.48524 20.22535 32685 ft 456 kts 153°
2026-04-20 16:36 42.45761 20.24666 32058 ft 457 kts 153°
2026-04-20 16:36 42.42999 20.26792 31435 ft 458 kts 153°
2026-04-20 16:36 42.40232 20.28920 30806 ft 458 kts 153°
2026-04-20 16:36 42.37461 20.31053 30189 ft 457 kts 153°
2026-04-20 16:37 42.34697 20.33179 29517 ft 456 kts 153°
2026-04-20 16:37 42.31953 20.35289 28924 ft 452 kts 153°
2026-04-20 16:37 42.29230 20.37378 28331 ft 448 kts 153°
2026-04-20 16:37 42.26528 20.39448 27730 ft 445 kts 153°
2026-04-20 16:38 42.23873 20.41478 27149 ft 443 kts 153°
2026-04-20 16:38 42.21281 20.43722 26558 ft 444 kts 142°
2026-04-20 16:38 42.19178 20.46839 25972 ft 445 kts 123°
2026-04-20 16:38 42.17873 20.50578 25405 ft 441 kts 104°
2026-04-20 16:39 42.17429 20.54567 24801 ft 434 kts 86°
2026-04-20 16:39 42.17842 20.58599 24187 ft 426 kts 69°
2026-04-20 16:39 42.18997 20.62156 23592 ft 416 kts 53°
2026-04-20 16:39 42.20574 20.65474 22993 ft 413 kts 52°
2026-04-20 16:40 42.22103 20.68672 22441 ft 411 kts 52°
2026-04-20 16:40 42.23647 20.71906 21900 ft 409 kts 52°
2026-04-20 16:40 42.25174 20.75114 21435 ft 405 kts 52°
2026-04-20 16:40 42.26686 20.78300 20943 ft 401 kts 52°
2026-04-20 16:41 42.28186 20.81463 20462 ft 398 kts 53°
2026-04-20 16:41 42.29674 20.84600 19969 ft 396 kts 53°
2026-04-20 16:41 42.31159 20.87730 19450 ft 394 kts 53°
2026-04-20 16:41 42.32634 20.90830 18942 ft 392 kts 53°
2026-04-20 16:42 42.34103 20.93924 18427 ft 390 kts 53°
2026-04-20 16:42 42.35566 20.97013 17873 ft 389 kts 54°
2026-04-20 16:42 42.37018 21.00082 17361 ft 385 kts 54°
2026-04-20 16:42 42.38448 21.03112 16858 ft 381 kts 54°
2026-04-20 16:43 42.39868 21.06125 16333 ft 378 kts 54°
2026-04-20 16:43 42.41274 21.09112 15819 ft 376 kts 54°
2026-04-20 16:43 42.42672 21.12085 15324 ft 373 kts 54°
2026-04-20 16:43 42.44059 21.15037 14833 ft 370 kts 54°
2026-04-20 16:44 42.45418 21.17931 14620 ft 357 kts 54°
2026-04-20 16:44 42.46479 21.20887 14504 ft 344 kts 72°
2026-04-20 16:44 42.46653 21.24048 14303 ft 335 kts 96°
2026-04-20 16:44 42.45918 21.27026 13799 ft 337 kts 123°
2026-04-20 16:45 42.44366 21.29308 13385 ft 326 kts 144°
2026-04-20 16:45 42.42559 21.31151 12710 ft 324 kts 145°
2026-04-20 16:45 42.40760 21.32965 12104 ft 320 kts 145°
2026-04-20 16:45 42.38983 21.34746 11608 ft 312 kts 147°
2026-04-20 16:46 42.37103 21.35921 11394 ft 289 kts 171°
2026-04-20 16:46 42.35162 21.35944 11000 ft 273 kts 197°
2026-04-20 16:46 42.33473 21.34933 10548 ft 262 kts 220°
2026-04-20 16:46 42.32235 21.33184 10118 ft 258 kts 236°
2026-04-20 16:47 42.31162 21.31236 9660 ft 259 kts 235°
2026-04-20 16:47 42.30079 21.29288 9247 ft 258 kts 235°
2026-04-20 16:47 42.29197 21.27212 8800 ft 255 kts 253°
2026-04-20 16:47 42.28981 21.24874 8370 ft 252 kts 276°
2026-04-20 16:48 42.29466 21.22627 7993 ft 250 kts 298°
2026-04-20 16:48 42.30479 21.20740 7609 ft 246 kts 308°
2026-04-20 16:48 42.31538 21.18952 7238 ft 241 kts 308°
2026-04-20 16:48 42.32566 21.17206 6877 ft 235 kts 307°
2026-04-20 16:49 42.33570 21.15493 6531 ft 230 kts 307°
2026-04-20 16:49 42.34559 21.13803 6169 ft 228 kts 307°
2026-04-20 16:49 42.35537 21.12132 5812 ft 225 kts 306°
2026-04-20 16:49 42.36498 21.10486 5453 ft 222 kts 305°
2026-04-20 16:50 42.37440 21.08875 5175 ft 213 kts 306°
2026-04-20 16:50 42.38319 21.07374 5131 ft 197 kts 306°
2026-04-20 16:50 42.39303 21.06134 5066 ft 192 kts 322°
2026-04-20 16:50 42.40489 21.05397 4901 ft 189 kts 340°
2026-04-20 16:51 42.41809 21.05156 4596 ft 192 kts 351°
2026-04-20 16:51 42.43136 21.05031 4306 ft 190 kts 351°
2026-04-20 16:51 42.44443 21.04901 4060 ft 186 kts 352°
2026-04-20 16:51 42.45697 21.04776 3820 ft 175 kts 353°
2026-04-20 16:52 42.46872 21.04658 3589 ft 160 kts 353°
2026-04-20 16:52 42.47921 21.04554 3381 ft 144 kts 353°
2026-04-20 16:52 42.48893 21.04455 3187 ft 137 kts 353°
2026-04-20 16:52 42.49825 21.04358 3017 ft 133 kts 353°
2026-04-20 16:53 42.50744 21.04265 2840 ft 132 kts 354°
2026-04-20 16:53 42.51663 21.04171 2653 ft 133 kts 354°
2026-04-20 16:53 42.52593 21.04080 2475 ft 135 kts 354°
2026-04-20 16:53 42.53530 21.03978 2304 ft 134 kts 351°
2026-04-20 16:54 42.54465 21.03878 2107 ft 136 kts 350°
2026-04-20 16:54 42.55416 21.03779 1904 ft 138 kts 350°
2026-04-20 16:54 42.56353 21.03685 1788 ft 125 kts 354°
2026-04-20 16:54 42.57077 21.03608 1788 ft 80 kts 355°
2026-04-20 16:55 42.57462 21.03570 1790 ft 31 kts 356°
2026-04-20 16:55 42.57530 21.03564 1789 ft 1 kts 355°
2026-04-20 16:55 42.57556 21.03560 1788 ft 6 kts 354°
2026-04-20 16:55 42.57617 21.03553 1786 ft 12 kts 355°
2026-04-20 16:56 42.57713 21.03539 1784 ft 15 kts 351°
2026-04-20 16:56 42.57811 21.03497 1785 ft 15 kts 336°
2026-04-20 16:56 42.57905 21.03427 1785 ft 16 kts 324°
2026-04-20 16:56 42.57973 21.03362 1788 ft 9 kts 326°
2026-04-20 16:57 42.58007 21.03317 1790 ft 5 kts 290°
2026-04-20 16:57 42.57988 21.03277 1789 ft 7 kts 196°
2026-04-20 16:57 42.57923 21.03279 1786 ft 11 kts 175°
2026-04-20 16:57 42.57837 21.03289 1787 ft 13 kts 178°
2026-04-20 16:58 42.57740 21.03298 1786 ft 15 kts 175°
2026-04-20 16:58 42.57650 21.03306 1786 ft 9 kts 176°
2026-04-20 16:58 42.57600 21.03292 1787 ft 8 kts 231°
2026-04-20 16:58 42.57567 21.03230 1787 ft 9 kts 209°
2026-04-20 16:59 42.57520 21.03222 1787 ft 5 kts 179°
2026-04-20 16:59 42.57501 21.03194 1787 ft 4 kts 265°
2026-04-20 16:59 42.57507 21.03164 1787 ft 2 kts 274°
2026-04-20 16:59 42.57505 21.03152 1787 ft 1 kts 250°
2026-04-20 17:00 42.57492 21.03126 1786 ft 2 kts 248°
2026-04-20 17:00 42.57491 21.03108 1787 ft 1 kts 262°
2026-04-20 17:00 42.57491 21.03107 1787 ft 0 kts 262°